スミルノワ-チェルヌイフ彗星

74P/Smirnova-Chernykh (2001)

English version
Home page
Updated on February 19, 2005

---------------------------------------------------------------------

・ プロフィール

・ 写真集

・ 軌道要素

Epoch 2001 Jan. 11.0 TT = JDT 2451920.5  
T 2001 Jan. 15.62931 TT                                 Muraoka 
q   3.5457786            (2000.0)            P               Q
n   0.11602404     Peri.   86.65429     -0.95378992     -0.27843852
a   4.1632969      Node    77.15583     +0.20844122     -0.88386681
e   0.1483243      Incl.    6.65234     +0.21641870     -0.37583435
P   8.49
From 540 observations 1967-2000, mean residual 0".85.  Nongravitational
   parameters A1 = +0.16 +/- 0.09, A2 = -0.3942 +/- 0.0047, R0 = 3.50.

・ 星図

・ 光度変化

        m1 = 2.0 + 5 logΔ + 20.0 log r

---------------------------------------------------------------------

軌道要素は村岡健治氏の計算によるものです。
星図は StellaNavigator Ver.2.0 for Windows (アストロアーツ 編著 / アスキー出版局刊) で作成したものです。
光度グラフはComet for Windowsで作成したものです。

---------------------------------------------------------------------

Copyright(C) Seiichi Yoshida (comet@aerith.net). All rights reserved.